Вернуться в каталог

SL-24 R/B

АктивенSSO
NORAD 33397·ROCKET BODY·🇷🇺 Russia

Запущен Oct 1, 2008 с Dombarovsky

Loading…

Ближайшие Пролёты (ближайшие 24 часа)

TLE

СвежийSource: Space-Track

Эпоха: Sep 14, 2026, 06:26 UTC

1 33397U 08049B   26257.26814167 -.00000087  00000-0 -22855-4 0  9996
2 33397  98.7543  24.4446 0338748 129.0378 255.6409 13.92028214911947

Отслеживайте SL-24 R/B в реальном времени с AllMySat

Download on the App Store